www.pogodaiklimat.ru

Погода и климат >> Архив погоды >> Россия >> Камчатский край >> Семячик


АРХИВ ПОГОДЫ в Семячике

Время (UTC), дата Ветер
(напр.,м/с)
 
Видим.   Явления Облачность Т
(С)
Тd
(С)
f
(%)
Тe
(С)
Тes
(С)
Комфортность P
(гПа)
Po
(гПа)
Тmin
(С)
Tmax
(С)
R
(мм)
R24
(мм)
S
(см)
00 15.07 Ю 4
{11}
50 км {туман} 3/0
[Ci fib]
+20.4 +12.1 59 +22 +32 комфорт 1007.9 1004.8
03 15.07 Ю 3 50 км 4/0
[Ci fib]
+19.2 +13.4 69 +21 +31 комфорт 1007.2 1004.1
06 15.07 Ю 4 50 км 8/0
[Ci fib]
+22.4 +12.6 54 +25 +28 комфорт 1006.8 1003.7
09 15.07 СЗ 2 50 км 6/0
[Ac cast Ci fib]
+19.7 +14.5 72 +22 +22 комфорт 1007.3 1004.2 +24.7
12 15.07 СЗ 6-10
{10}
20 км 6/0
[Ci fib]
+23.9 +9.5 40 +25 +25 комфорт 1008.0 1004.9
15 15.07 СЗ 8-12
{12}
20 км 8/0
[Ac trans Ci fib]
+23.4 +5.8 32 +24 +24 комфорт 1008.0 1004.9
18 15.07 СЗ 10-15
{15}
50 км ясно +21.9 +7.3 39 +23 +23 комфорт 1008.3 1005.2
21 15.07 СЗ 7-10
{16}
50 км ясно +23.5 +7.9 37 +24 +26 комфорт 1009.3 1006.2 +17.1
00 16.07 Ю 6
{11}
50 км ясно +20.6 +9.2 48 +22 +28 комфорт 1010.1 1006.9
03 16.07 Ю 7 50 км ясно +20.8 +9.7 49 +22 +26 комфорт 1010.0 1006.8
06 16.07 Ю 7 50 км ясно +20.8 +8.6 45 +22 +23 комфорт 1009.8 1006.6
09 16.07 Ю 1 50 км 8/0
[Ci sp]
+16.8 +10.2 65 +18 +18 1010.4 1007.2 +24.6
12 16.07 С 2 20 км ясно +14.7 +11.1 79 +14 +14 1012.0 1008.8
15 16.07 С 1 20 км ясно +14.7 +10.9 78 +15 +15 1012.0 1008.7
18 16.07 штиль 0 20 км 8/0
[Ac cast Ci fib]
+13.6 +10.8 83 +13 +13 1012.2 1009.0
21 16.07 Ю 1 50 км 4/0
[Ac cast]
+16.1 +12.4 79 +17 +22 1012.4 1009.2 +12.9
00 17.07 Ю 4 50 км ясно +17.2 +14.3 83 +17 +26 1012.3 1009.1
03 17.07 Ю 3 50 км 4/1 1000 м
[Cu hum Ci fib]
+16.9 +14.2 84 +17 +26 1012.1 1008.9
06 17.07 В 2 50 км 8/0
[Ac lent Ci fib]
+16.3 +13.4 83 +16 +20 1011.9 1008.7
09 17.07 С 3 50 км 8/3 300 м
[St Ci fib]
+13.2 +11.9 92 +12 +12 1012.8 1009.5 +17.7
12 17.07 СВ 4 500 м туман ?/? +12.3 +11.6 95 +10 +10 1013.9 1010.7
15 17.07 СВ 3 500 м туман ?/? +11.8 +11.3 97 +10 +10 1013.6 1010.4
18 17.07 СВ 2 500 м туман ?/? +11.5 +11.2 98 +10 +10 1013.7 1010.4
21 17.07 В 2 500 м туман ?/? +11.8 +11.4 97 +11 +11 1013.9 1010.7 +11.5
00 18.07 ЮВ 2 2000 м дымка {туман} 10/10 100 м
[St]
+12.4 +11.8 96 +11 +11 1013.7 1010.5
03 18.07 ЮВ 3 2000 м дымка 10/10 100 м
[St]
+12.4 +11.5 94 +11 +11 1013.6 1010.3
06 18.07 В 1 2000 м дымка 10/10 100 м
[St]
+12.6 +11.6 94 +13 +13 1013.6 1010.4
09 18.07 С 2 2000 м дымка 10/10 100 м
[St]
+12.1 +11.2 94 +11 +11 1014.0 1010.7 +13.2
12 18.07 штиль 0 500 м туман ?/? +11.5 +11.0 97 +11 +11 1014.9 1011.6
15 18.07 штиль 0 500 м туман ?/? +11.2 +10.8 97 +10 +10 1015.3 1012.1
18 18.07 ЮЗ 2 1000 м туман местами 10/6 200 м
[St Ac lent Ci fib]
+10.0 +9.5 97 +8 +8 1015.8 1012.5
21 18.07 Ю 4 50 км 3/0
[Ci fib]
+12.3 +11.4 94 +10 +14 1016.3 1013.0 +9.7
00 19.07 Ю 3 4000 м дымка {туман} 10/10 100 м
[St]
+13.4 +12.1 92 +12 +12 1017.2 1014.0
03 19.07 В 1 20 км дымка 10/10 300 м
[St]
+14.9 +12.8 87 +15 +15 1017.5 1014.3
06 19.07 СВ 2 50 км 8/3 300 м
[St Ac lent]
+15.7 +12.8 83 +16 +17 1017.6 1014.4
09 19.07 С 3 50 км 8/3 1000 м
[Sc diur, vesp Ci fib]
+13.4 +11.8 90 +12 +12 1018.4 1015.1 +15.9
12 19.07 С 1 20 км 8/3 600 м
[Sc diur, vesp Ac cuf Ci fib]
+12.3 +11.5 95 +12 +12 1019.0 1015.7
15 19.07 штиль 0 20 км ясно +12.1 +11.6 97 +11 +11 1018.7 1015.4
18 19.07 С 1 50 км ясно +11.9 +11.5 97 +12 +12 1018.5 1015.2
21 19.07 Ю 3 50 км 3/0 300 м
[Ci sp]
+14.5 +13.2 92 +14 +18 1018.5 1015.3 +11.3
00 20.07 Ю 3 50 км 5/3 600 м
[Sc Ac trans Ci sp]
+16.6 +14.5 87 +16 +23 1017.8 1014.6
03 20.07 ЮВ 2 50 км 8/5 600 м
[Sc Ac trans Ci sp]
+17.1 +14.6 85 +17 +22 1016.5 1013.3
06 20.07 СВ 2 50 км 10/10 600 м
[Sc]
+16.6 +14.8 89 +17 +17 1015.9 1012.7
09 20.07 Ю 2 50 км 10/10 600 м
[Sc]
+17.3 +14.4 83 +18 +18 1015.6 1012.4 +19.6
12 20.07 С 1 20 км 10/10 600 м
[Sc]
+18.0 +14.8 82 +19 +19 1015.1 1011.9
15 20.07 ЮЗ 1 20 км 10/10 600 м
[Sc]
+16.9 +14.5 86 +18 +18 1014.3 1011.1
18 20.07 СЗ 3 50 км 9/8 1000 м
[Sc Ac lent]
+18.0 +13.1 73 +18 +18 1013.7 1010.5
21 20.07 Ю 3 50 км 9/8 1000 м
[Cu Sc Ac lent]
+20.0 +14.8 72 +23 +23 комфорт 1012.8 1009.6 +16.8
00 21.07 Ю 3 50 км 9/4 1000 м
[Sc Ac lent]
+21.9 +16.0 69 +26 +28 душно 1011.0 1007.9
03 21.07 ЮЗ 5 50 км 9/5 1000 м
[Sc Ac und]
+24.3 +16.2 61 +28 +29 душно 1008.8 1005.6
06 21.07 ЮЗ 4
{10}
50 км 10/5 1000 м
[Sc Ac trans Ci fib]
+23.8 +15.8 61 +27 +28 жарко 1006.8 1003.7
09 21.07 ЮЗ 5
{12}
20 км осадки на расстоянии 10/10 1000 м
[Cb cap]
+21.7 +12.0 54 +24 +24 комфорт 1006.8 1003.7 +24.9
12 21.07 СЗ 6
{11}
20 км 10/10 1000 м
[Sc]
+19.2 +10.2 56 +20 +20 1007.6 1004.5
15 21.07 С 7-10
{11}
20 км {ливн. осадки} 10/10 1000 м
[Sc]
+17.3 +9.7 61 +16 +16 1009.2 1006.0
18 21.07 Ю 3 50 км 8/6 600 м
[Sc Ac trans Ci fib]
+14.2 +11.9 86 +13 +13 1010.4 1007.2

 

Местоположение метеостанции Семячик (Камчатский край, Россия): широта 54.12 долгота 159.90 высота над уровнем моря 27 м.

В архиве по умолчанию представлена погода в Семячике за последнюю неделю. Архивные данные за месяц целиком и за предыдущие месяцы, начиная с января 2011 года, Вы можете получить, выбрав интересующий диапазон дат из раскрывающегося списка и нажав кнопку "Ввод!".


*Определитесь, кто Вы:
робот инопланетянин человек

Внимание! Время в таблицах - всемирное. Для получения местного времени необходимо прибавить поправку, которая равна 12 ч.

Смотрите также архив погоды в соседних городах и на ближайших метеорологических станциях:

Погода в Мильково (Камчатский край, Россия) (110 км)
Погода в Пущино (Камчатский край, Россия) (124 км)
Погода в Долиновке (Камчатский край, Россия) (125 км)
Погода в Петропавловск-Камч. 2 (Камчатский край, Россия) (148 км)
Погода в Сосновке (Камчатский край, Россия) (157 км)
Погода в Петропавловском Маяке (Камчатский край, Россия) (159 км)
Погода в Петропавловск-Камчатском (Камчатский край, Россия) (163 км)
Погода в Начиках (Камчатский край, Россия) (183 км)
Погода в Козыревске (Камчатский край, Россия) (215 км)
Погода в Эссо (Камчатский край, Россия) (215 км)

Пояснения к столбцам:

Ветер - указаны скорость ветра в м/с - средняя за 10 мин, порывы в срок и между сроками (в фигурных скобках) и направление, откуда дует ветер: С - северный, СВ - северо-восточный, В - восточный, ЮВ - юго-восточный, Ю - южный, ЮЗ - юго-западный, З - западный, СЗ - северо-западный.
Видимость - горизонтальная дальность видимости в метрах или километрах. При видимости от 1 до 10 км при отсутствии осадков обычно наблюдается дымка, при ухудшении видимости до 1 км и менее - туман. В сухую погоду видимость может ухудшаться дымом, пылью или мглою.
Явления - указаны атмосферные явления, наблюдавшиеся в срок или в последний час перед сроком; фигурными скобками обозначены явления, наблюдавшиеся между сроками (за 1-3 часа до срока); квадратными скобками обозначены град или гололедные отложения с указанием их диаметра в мм.
Облачность - указаны через наклонную черту общая и нижняя облачность в баллах и высота нижней границы облаков в метрах; квадратными скобками обозначены формы облаков: Ci - перистые, Cs - перисто-слоистые, Cc - перисто-кучевые, Ac - высококучевые, As - высокослоистые, Sc - слоисто-кучевые, Ns - слоисто-дождевые, Cu - кучевые, Cb - кучево-дождевые. Подробнее классификацию облаков см. в Атласе облаков (PDF).
T - Температура воздуха - температура, измеренная на высоте 2 м над землей.
Td - Температура точки росы - температура, при понижении до которой содержащийся в воздухе водяной пар достигнет насыщения.
f - Относительная влажность воздуха - влажноcть воздуха, измеренная на высоте 2 м над землей.
Te - Эффективная температура - температура, которую ощущает одетый по сезону человек в тени. Характеристика душности погоды. При расчете учитывается влияние влажности воздуха и скорости ветра на теплоощущения человека.
Tes - Эффективная температура на солнце - температура, которую ощущает человек, с поправкой на солнечный нагрев. Характеристика знойности погоды. Зависит от высоты солнца над горизонтом, облачности и скорости ветра. Ночью, в пасмурную погоду, а также при ветре 12 м/с и более поправка равна нулю.
P - Атмосферное давление - приведенное к уровню моря атмосферное давление.
Po - Атмосферное давление - измеренное на уровне метеостанции атмосферное давление.
Tmin - Минимальная температура - минимум температуры воздуха на высоте 2 м над землей.
Tmax - Максимальная температура - максимум температуры воздуха на высоте 2 м над землей.
R - Количество осадков - Количество выпавших осадков за период времени, мм. При наведении курсора мыши на число - период времени, за который выпало указанное количество осадков.
R24 - Количество осадков - Количество выпавших осадков за 24 часа, мм.
S - Снежный покров - Высота снежного покрова, см. При наведении курсора мыши на число - состояние снежного покрова и степень покрытия местности в баллах.